Regional Weather Roundup
Issued by NWS

Home | Current Version | Previous Version | Text Only | Print | Product List | Glossary Off
Versions: 1 2 3 4 5 6 7 8 9 10 11 12 13 14 15 16 17 18 19 20 21 22 23 24 25 26 27

000
ASUS45 KCYS 251810
RWRWY

WYOMING REGIONAL WEATHER ROUNDUP
NATIONAL WEATHER SERVICE CHEYENNE WY
1200 PM MDT SAT MAR 25 2017

NOTE:  "FAIR" INDICATES FEW OR NO CLOUDS BELOW 12,000 FEET
WITH NO SIGNIFICANT WEATHER AND/OR OBSTRUCTIONS TO VISIBILITY.

WYZ001-251900-
YELLOWSTONE NATIONAL PARK

CITY           SKY/WX    TMP DP  RH WIND       PRES   REMARKS
LK YELLOWSTONE   N/A     37  28  70 VRB6      30.01F WCI  32
6HR MIN TEMP:  30; 6HR MAX TEMP:  37; 6HR PCP:  0.01;

W YELLOWSTONE  NOT AVBL

$$
WYZ002>013-054>058-071-098>099-251900-
NORTHERN WYOMING

CITY           SKY/WX    TMP DP  RH WIND       PRES   REMARKS
JACKSON        PTSUNNY   37  37 100 SW7       30.00F WCI  32
CODY           FAIR      47  31  53 N10       29.98S
GREYBULL       CLOUDY    52  33  48 CALM      29.92F
6HR MIN TEMP:  38; 6HR MAX TEMP:  53;

WORLAND        CLOUDY    49  38  65 N3        29.93F
6HR MIN TEMP:  35; 6HR MAX TEMP:  49;

SHERIDAN       CLOUDY    51  34  52 NW13      29.99F
6HR MIN TEMP:  40; 6HR MAX TEMP:  53;

BUFFALO        CLOUDY    53  32  44 N20G26    29.98F
6HR MIN TEMP:  45; 6HR MAX TEMP:  54;

GILLETTE       FAIR      57  33  40 N13       29.94F
6HR MIN TEMP:  41; 6HR MAX TEMP:  57;

HULETT         FAIR      55  30  38 N5        29.94F
NEWCASTLE      FAIR      54  27  35 W5        29.93F

$$
WYZ014>020-022>026-101>103-251900-
CENTRAL WYOMING

CITY           SKY/WX    TMP DP  RH WIND       PRES   REMARKS
BIG PINEY      CLOUDY    36  34  92 CALM      30.01F
6HR MIN TEMP:  30; 6HR MAX TEMP:  36; 6HR PCP:  0.02;

PINEDALE       LGT RAIN  34  34 100 E6        30.01F WCI  29
DUBOIS         CLOUDY    43  28  56 CALM      29.97F
LANDER         CLOUDY    51  30  44 VRB5      29.93F
6HR MIN TEMP:  36; 6HR MAX TEMP:  52;

RIVERTON       CLOUDY    51  34  52 E6        29.95F
6HR MIN TEMP:  38; 6HR MAX TEMP:  51;

CASPER         FAIR      53  29  39 SW15      29.94F
6HR MIN TEMP:  41; 6HR MAX TEMP:  53;

DOUGLAS        PTSUNNY   56  29  35 W5        29.95F
6HR MIN TEMP:  32; 6HR MAX TEMP:  56;


$$
WYZ021-027>030-104>119-251900-
SOUTHERN WYOMING

CITY           SKY/WX    TMP DP  RH WIND       PRES   REMARKS
EVANSTON       LGT SNOW  36  33  89 SW6       30.00F FOG     WCI  31
6HR MIN TEMP:  35; 6HR MAX TEMP:  39; 6HR PCP: TRACE;

KEMMERER       LGT RAIN  37  30  75 SW3       30.02R
FORT BRIDGER   CLOUDY    45  32  61 NW7       30.02S
ROCK SPRINGS   FAIR      48  28  46 CALM      29.98F
6HR MIN TEMP:  34; 6HR MAX TEMP:  49;

DIXON            N/A     56  21  25 S15       30.01F
RAWLINS        FAIR      53  22  29 SW20      29.98F
6HR MIN TEMP:  39; 6HR MAX TEMP:  54;

SARATOGA       FAIR      52  23  32 SE8       30.01F
LARAMIE        FAIR      50  17  27 SW13      30.00F
6HR MIN TEMP:  32; 6HR MAX TEMP:  52;

CHEYENNE       FAIR      54  26  34 SW13      30.00F
6HR MIN TEMP:  32; 6HR MAX TEMP:  55;

TORRINGTON     FAIR      58  31  35 S8        29.93F
6HR MIN TEMP:  29; 6HR MAX TEMP:  58;

PINE BLUFFS    FAIR      55  28  35 SW13      30.00F

$$




USA.gov is the U.S. government's official web portal to all federal, state and local government web resources and services.